, MS

(GMT )
Nakika

Weather History for KIKT - December, 2013

Change the Weather History Date:

Wednesday, December 18, 2013

  Actual Average Record
Temperature  
Mean Temperature 65 °F -  
Max Temperature 68 °F - - ()
Min Temperature 62 °F - - ()
Growing Degree Days 15 (Base 50)    
Moisture  
Dew Point 51 °F    
Average Humidity 58    
Maximum Humidity 68    
Minimum Humidity 42    
Precipitation  
Precipitation 0.00 in - - ()
Sea Level Pressure  
Sea Level Pressure 30.28 in    
Wind  
Wind Speed 11 mph (ENE)    
Max Wind Speed 20 mph    
Max Gust Speed 22 mph    
Visibility 10 miles    
Events      
Averages and records for this station are not official NWS values.
T = Trace of Precipitation, MM = Missing Value Source: NWS Daily Summary

Daily Weather History Graph

Daily Weather History Graph

Search for Another Location

Airport or City:

Trip Planner

Search our weather history database for the weather conditions in past years. The results will help you decide how hot, cold, wet, or windy it might be!

Date:

Astronomy

Dec. 18, 2013 Rise Set
Actual Time 6:40 AM CST 4:59 PM CST
Civil Twilight 6:14 AM CST 5:25 PM CST
Nautical Twilight 5:44 AM CST 5:55 PM CST
Astronomical Twilight 5:15 AM CST 6:24 PM CST
Moon 6:24 PM CST (12/18) 7:25 AM CST (12/18)
Length of Visible Light 11h 11m
Length of Day
10h 19m
Full, 98% of the Moon is Illuminated
Dec 18
Full
Dec 25
Last Quarter
Jan 1
New
Jan 7
First Quarter
Jan 15
Full

Hourly Weather History & Observations

Time (CST) Temp. Dew Point Humidity Pressure Visibility Wind Dir Wind Speed Gust Speed Precip Events Conditions
12:15 AM 62.6 °F 48.2 °F 59% 30.28 in 10.0 mi WNW 5.8 mph 12.7 mph N/A   Clear
12:35 AM 62.6 °F 50.0 °F 63% 30.28 in 10.0 mi Variable 5.8 mph 11.5 mph N/A   Clear
12:55 AM 62.6 °F 50.0 °F 63% 30.28 in 10.0 mi Variable 6.9 mph 12.7 mph N/A   Clear
1:15 AM 62.6 °F 50.0 °F 63% 30.28 in 10.0 mi Variable 5.8 mph - N/A   Clear
1:35 AM 62.6 °F 50.0 °F 63% 30.28 in 10.0 mi Variable 6.9 mph 13.8 mph N/A   Clear
1:55 AM 62.6 °F 48.2 °F 59% 30.27 in 10.0 mi NW 6.9 mph - N/A   Clear
2:15 AM 62.6 °F 44.6 °F 52% 30.28 in 10.0 mi Variable 3.5 mph 11.5 mph N/A   Clear
2:35 AM 64.4 °F 42.8 °F 45% 30.27 in 10.0 mi Variable 6.9 mph - N/A   Clear
2:55 AM 62.6 °F 39.2 °F 42% 30.27 in 10.0 mi Variable 4.6 mph - N/A   Clear
3:15 AM 64.4 °F 41.0 °F 42% 30.27 in 10.0 mi Variable 3.5 mph - N/A   Clear
3:35 AM 64.4 °F 42.8 °F 45% 30.27 in 10.0 mi Variable 6.9 mph - N/A   Clear
3:55 AM 64.4 °F 42.8 °F 45% 30.27 in 10.0 mi Variable 4.6 mph 11.5 mph N/A   Clear
4:15 AM 64.4 °F 44.6 °F 49% 30.27 in 10.0 mi North 11.5 mph - N/A   Clear
4:35 AM 64.4 °F 44.6 °F 49% 30.27 in 10.0 mi NNE 13.8 mph - N/A   Clear
4:55 AM 64.4 °F 48.2 °F 56% 30.27 in 10.0 mi NNE 12.7 mph - N/A   Clear
5:15 AM 64.4 °F 48.2 °F 56% 30.27 in 10.0 mi NNE 12.7 mph - N/A   Partly Cloudy
5:35 AM 64.4 °F 48.2 °F 56% 30.28 in 10.0 mi NNE 9.2 mph 17.3 mph N/A   Partly Cloudy
5:55 AM 64.4 °F 46.4 °F 52% 30.28 in 10.0 mi NE 8.1 mph 17.3 mph N/A   Partly Cloudy
6:15 AM 64.4 °F 48.2 °F 56% 30.28 in 10.0 mi NE 11.5 mph - N/A   Partly Cloudy
6:35 AM 64.4 °F 48.2 °F 56% 30.29 in 10.0 mi NE 8.1 mph 16.1 mph N/A   Clear
6:55 AM 64.4 °F 48.2 °F 56% 30.29 in 10.0 mi NE 8.1 mph - N/A   Clear
7:15 AM 66.2 °F 48.2 °F 52% 30.30 in 10.0 mi NNE 11.5 mph - N/A   Clear
7:35 AM 66.2 °F 48.2 °F 52% 30.30 in 10.0 mi NE 9.2 mph 16.1 mph N/A   Clear
7:55 AM 66.2 °F 48.2 °F 52% 30.30 in 10.0 mi NNE 10.4 mph 17.3 mph N/A   Clear
8:15 AM 66.2 °F 48.2 °F 52% 30.31 in 10.0 mi ENE 11.5 mph - N/A   Clear
8:35 AM 68.0 °F 48.2 °F 49% 30.32 in 10.0 mi ENE 12.7 mph 19.6 mph N/A   Clear
8:55 AM 68.0 °F 50.0 °F 52% 30.33 in 10.0 mi NE 9.2 mph 19.6 mph N/A   Clear
9:15 AM 68.0 °F 50.0 °F 52% 30.33 in 10.0 mi NE 10.4 mph 17.3 mph N/A   Clear
9:35 AM 68.0 °F 50.0 °F 52% 30.33 in 10.0 mi NE 11.5 mph 19.6 mph N/A   Clear
9:55 AM 68.0 °F 51.8 °F 56% 30.33 in 10.0 mi NE 11.5 mph 18.4 mph N/A   Clear
10:15 AM 68.0 °F 51.8 °F 56% 30.33 in 10.0 mi ENE 13.8 mph - N/A   Clear
10:35 AM 68.0 °F 51.8 °F 56% 30.32 in 10.0 mi ENE 15.0 mph - N/A   Clear
10:55 AM 68.0 °F 51.8 °F 56% 30.32 in 10.0 mi ENE 15.0 mph - N/A   Clear
11:15 AM 68.0 °F 51.8 °F 56% 30.32 in 10.0 mi ENE 15.0 mph - N/A   Clear
11:35 AM 68.0 °F 51.8 °F 56% 30.31 in 10.0 mi East 13.8 mph - N/A   Clear
11:55 AM 68.0 °F 53.6 °F 60% 30.30 in 10.0 mi ENE 12.7 mph - N/A   Clear
12:15 PM 68.0 °F 53.6 °F 60% 30.29 in 10.0 mi ENE 13.8 mph - N/A   Clear
12:35 PM 68.0 °F 53.6 °F 60% 30.28 in 10.0 mi East 16.1 mph - N/A   Clear
12:55 PM 68.0 °F 53.6 °F 60% 30.27 in 10.0 mi East 15.0 mph - N/A   Clear
1:15 PM 66.2 °F 53.6 °F 64% 30.27 in 10.0 mi East 15.0 mph - N/A   Clear
1:35 PM 66.2 °F 53.6 °F 64% 30.26 in 10.0 mi East 15.0 mph - N/A   Clear
1:55 PM 66.2 °F 55.4 °F 68% 30.25 in 10.0 mi ENE 17.3 mph - N/A   Clear
2:15 PM 66.2 °F 55.4 °F 68% 30.25 in 10.0 mi ENE 16.1 mph - N/A   Clear
2:35 PM 68.0 °F 53.6 °F 60% 30.26 in 10.0 mi East 17.3 mph - N/A   Clear
2:55 PM 66.2 °F 55.4 °F 68% 30.25 in 10.0 mi East 15.0 mph - N/A   Clear
3:15 PM 66.2 °F 55.4 °F 68% 30.25 in 10.0 mi East 17.3 mph - N/A   Partly Cloudy
3:35 PM 66.2 °F 55.4 °F 68% 30.26 in 10.0 mi East 16.1 mph - N/A   Scattered Clouds
3:55 PM 66.2 °F 55.4 °F 68% 30.26 in 10.0 mi East 15.0 mph 20.7 mph N/A   Scattered Clouds
4:15 PM 66.2 °F 55.4 °F 68% 30.25 in 10.0 mi East 17.3 mph - N/A   Partly Cloudy
4:35 PM 66.2 °F 55.4 °F 68% 30.25 in 10.0 mi East 18.4 mph - N/A   Clear
4:55 PM 66.2 °F 55.4 °F 68% 30.25 in 10.0 mi East 17.3 mph - N/A   Clear
5:15 PM 66.2 °F 53.6 °F 64% 30.25 in 10.0 mi East 16.1 mph 21.9 mph N/A   Clear
5:35 PM 66.2 °F 55.4 °F 68% 30.25 in 10.0 mi East 16.1 mph - N/A   Scattered Clouds
5:55 PM 66.2 °F 55.4 °F 68% 30.25 in 10.0 mi East 18.4 mph - N/A   Mostly Cloudy
6:15 PM 66.2 °F 53.6 °F 64% 30.26 in 10.0 mi East 16.1 mph - N/A   Mostly Cloudy
6:35 PM 66.2 °F 53.6 °F 64% 30.26 in 10.0 mi East 17.3 mph - N/A   Mostly Cloudy
6:55 PM 66.2 °F 53.6 °F 64% 30.26 in 10.0 mi East 18.4 mph - N/A   Scattered Clouds
7:15 PM 66.2 °F 53.6 °F 64% 30.26 in 10.0 mi ESE 18.4 mph - N/A   Mostly Cloudy
7:35 PM 66.2 °F 53.6 °F 64% 30.26 in 10.0 mi East 17.3 mph - N/A   Mostly Cloudy
7:55 PM 66.2 °F 53.6 °F 64% 30.27 in 10.0 mi East 17.3 mph - N/A   Mostly Cloudy
8:15 PM 66.2 °F 53.6 °F 64% 30.27 in 10.0 mi ESE 17.3 mph - N/A   Mostly Cloudy
8:35 PM 66.2 °F 53.6 °F 64% 30.27 in 10.0 mi SE 17.3 mph - N/A   Mostly Cloudy
8:55 PM 68.0 °F 53.6 °F 60% 30.27 in 10.0 mi ESE 15.0 mph - N/A   Mostly Cloudy
9:15 PM 68.0 °F 51.8 °F 56% 30.27 in 10.0 mi ESE 17.3 mph - N/A   Mostly Cloudy
9:35 PM 68.0 °F 51.8 °F 56% 30.27 in 10.0 mi ESE 18.4 mph - N/A   Mostly Cloudy
9:55 PM 68.0 °F 53.6 °F 60% 30.26 in 10.0 mi ESE 18.4 mph - N/A   Scattered Clouds
10:15 PM 68.0 °F 51.8 °F 56% 30.26 in 10.0 mi ESE 19.6 mph - N/A   Partly Cloudy
10:35 PM 68.0 °F 51.8 °F 56% 30.26 in 10.0 mi ESE 19.6 mph - N/A   Partly Cloudy
10:55 PM 68.0 °F 51.8 °F 56% 30.26 in 10.0 mi ESE 19.6 mph - N/A   Partly Cloudy
11:15 PM 68.0 °F 51.8 °F 56% 30.25 in 10.0 mi ESE 18.4 mph - N/A   Partly Cloudy
11:35 PM 68.0 °F 51.8 °F 56% 30.24 in 10.0 mi SE 16.1 mph - N/A   Scattered Clouds
11:55 PM 68.0 °F 53.6 °F 60% 30.24 in 10.0 mi ESE 19.6 mph - N/A   Scattered Clouds